| time (UTC) | temp F | wind direction | speed MPH | gust MPH | rain 1hr in | rain 24hr in | rain mn in | humidity % | barometer mb |
| 20260504141010 | 69 | 166 | 5.0 | 13.0 | 0.00 | 0.00 | 0.00 | 75 | 1003.9 |
| 20260504140509 | 68 | 151 | 6.0 | 13.0 | 0.00 | 0.00 | 0.00 | 76 | 1004.3 |
| 20260504130427 | 63 | 156 | 3.0 | 13.0 | 0.00 | 0.00 | 0.00 | 81 | 1006.8 |
| 20260504110318 | 58 | 115 | 0.0 | 13.0 | 0.00 | 0.00 | 0.00 | 85 | 1007.2 |
| 20260504081646 | 62 | 139 | 3.0 | 13.0 | 0.00 | 0.00 | 0.00 | 78 | 1008.1 |
| 20260504080629 | 62 | 140 | 3.0 | 13.0 | 0.00 | 0.00 | 0.00 | 78 | 1008.3 |
| 20260504080128 | 62 | 140 | 1.0 | 13.0 | 0.00 | 0.00 | 0.00 | 78 | 1008.5 |
| 20260504050408 | 64 | 151 | 3.0 | 13.0 | 0.00 | 0.00 | 0.00 | 74 | 1009.6 |
| 20260504045907 | 64 | 144 | 2.0 | 13.0 | 0.00 | 0.00 | 0.00 | 74 | 1009.9 |
| 20260504045406 | 64 | 146 | 3.0 | 13.0 | 0.00 | 0.00 | 0.00 | 74 | 1009.6 |
| 20260504044906 | 64 | 156 | 3.0 | 13.0 | 0.00 | 0.00 | 0.00 | 73 | 1009.6 |
| 20260504044404 | 64 | 155 | 2.0 | 13.0 | 0.00 | 0.00 | 0.00 | 73 | 1009.6 |
| 20260504043347 | 64 | 150 | 2.0 | 13.0 | 0.00 | 0.00 | 0.00 | 72 | 1009.8 |
| 20260504042847 | 65 | 153 | 3.0 | 13.0 | 0.00 | 0.00 | 0.00 | 72 | 1009.8 |
| 20260504042346 | 65 | 154 | 2.0 | 13.0 | 0.00 | 0.00 | 0.00 | 72 | 1009.5 |
| 20260504041845 | 65 | 154 | 2.0 | 13.0 | 0.00 | 0.00 | 0.00 | 71 | 1009.6 |
| 20260504041343 | 65 | 153 | 3.0 | 13.0 | 0.00 | 0.00 | 0.00 | 71 | 1009.4 |
| 20260504040843 | 65 | 155 | 2.0 | 13.0 | 0.00 | 0.00 | 0.00 | 71 | 1009.5 |
| 20260504035826 | 65 | 157 | 2.0 | 13.0 | 0.00 | 0.00 | 0.00 | 71 | 1009.6 |
| 20260504035324 | 65 | 156 | 3.0 | 13.0 | 0.00 | 0.00 | 0.00 | 70 | 1009.7 |
| 20260504033236 | 66 | 145 | 2.0 | 13.0 | 0.00 | 0.00 | 0.00 | 70 | 1009.2 |
| 20260504032735 | 66 | 146 | 3.0 | 13.0 | 0.00 | 0.00 | 0.00 | 69 | 1008.9 |
| 20260504032234 | 66 | 145 | 3.0 | 13.0 | 0.00 | 0.00 | 0.00 | 69 | 1009.1 |
| 20260504031733 | 66 | 154 | 3.0 | 13.0 | 0.00 | 0.00 | 0.00 | 69 | 1008.8 |
| 20260504030716 | 66 | 155 | 2.0 | 13.0 | 0.00 | 0.00 | 0.00 | 68 | 1008.9 |
| 20260504030215 | 67 | 143 | 3.0 | 13.0 | 0.00 | 0.00 | 0.00 | 67 | 1008.5 |
| 20260504025714 | 67 | 141 | 2.0 | 13.0 | 0.00 | 0.00 | 0.00 | 67 | 1008.1 |
| 20260504025213 | 67 | 142 | 1.0 | 13.0 | 0.00 | 0.00 | 0.00 | 66 | 1008.3 |
| 20260504024712 | 67 | 141 | 1.0 | 13.0 | 0.00 | 0.00 | 0.00 | 65 | 1008.1 |
| 20260504024211 | 67 | 146 | 3.0 | 13.0 | 0.00 | 0.00 | 0.00 | 64 | 1007.6 |
| 20260504023710 | 67 | 133 | 2.0 | 13.0 | 0.00 | 0.00 | 0.00 | 63 | 1007.4 |
| 20260504023209 | 67 | 121 | 2.0 | 13.0 | 0.00 | 0.00 | 0.00 | 63 | 1007.5 |
| 20260504022152 | 67 | 122 | 1.0 | 13.0 | 0.00 | 0.00 | 0.00 | 64 | 1007.0 |
| 20260504021651 | 67 | 122 | 1.0 | 13.0 | 0.00 | 0.00 | 0.00 | 62 | 1006.3 |
| 20260504021150 | 68 | 122 | 1.0 | 13.0 | 0.00 | 0.00 | 0.00 | 60 | 1005.1 |
| 20260504020649 | 69 | 123 | 0.0 | 13.0 | 0.00 | 0.00 | 0.00 | 60 | 1005.3 |
| 20260504020148 | 69 | 123 | 0.0 | 13.0 | 0.00 | 0.00 | 0.00 | 57 | 1005.4 |
| 20260504015647 | 69 | 123 | 0.0 | 13.0 | 0.00 | 0.00 | 0.00 | 56 | 1004.9 |
| 20260504014630 | 70 | 123 | 1.0 | 13.0 | 0.00 | 0.00 | 0.00 | 55 | 1004.7 |
| 20260504014129 | 70 | 123 | 0.0 | 13.0 | 0.00 | 0.00 | 0.00 | 55 | 1004.8 |
| 20260504013112 | 71 | 124 | 0.0 | 13.0 | 0.00 | 0.00 | 0.00 | 54 | 1005.0 |
| 20260504012611 | 71 | 126 | 1.0 | 13.0 | 0.00 | 0.00 | 0.00 | 53 | 1004.6 |
| 20260504012110 | 71 | 126 | 2.0 | 13.0 | 0.00 | 0.00 | 0.00 | 52 | 1004.6 |
| 20260504011609 | 72 | 127 | 2.0 | 13.0 | 0.00 | 0.00 | 0.00 | 52 | 1004.5 |
| 20260504010552 | 72 | 126 | 1.0 | 13.0 | 0.00 | 0.00 | 0.00 | 50 | 1003.4 |
| 20260504010051 | 73 | 126 | 2.0 | 13.0 | 0.00 | 0.00 | 0.00 | 50 | 1002.7 |
| 20260504005550 | 73 | 127 | 2.0 | 13.0 | 0.00 | 0.00 | 0.00 | 49 | 1002.4 |
| 20260504005049 | 73 | 127 | 2.0 | 13.0 | 0.00 | 0.00 | 0.00 | 48 | 1001.9 |
| 20260504004032 | 74 | 129 | 2.0 | 13.0 | 0.00 | 0.00 | 0.00 | 47 | 1001.9 |
| 20260504003531 | 74 | 129 | 3.0 | 13.0 | 0.00 | 0.00 | 0.00 | 47 | 1002.0 |
| 20260504003030 | 74 | 128 | 2.0 | 13.0 | 0.00 | 0.00 | 0.00 | 45 | 1002.0 |
| 20260504002529 | 75 | 127 | 3.0 | 13.0 | 0.00 | 0.00 | 0.00 | 45 | 1001.6 |
| 20260504002028 | 75 | 131 | 4.0 | 13.0 | 0.00 | 0.00 | 0.00 | 43 | 1001.6 |
| 20260504001527 | 75 | 131 | 3.0 | 13.0 | 0.00 | 0.00 | 0.00 | 44 | 1001.7 |
| 20260504001026 | 75 | 131 | 4.0 | 13.0 | 0.00 | 0.00 | 0.00 | 43 | 1002.1 |
| 20260504000525 | 75 | 132 | 3.0 | 13.0 | 0.00 | 0.00 | 0.00 | 42 | 1002.8 |
| 20260504000024 | 75 | 130 | 4.0 | 13.0 | 0.00 | 0.00 | 0.00 | 41 | 1002.7 |
| 20260503235523 | 75 | 136 | 5.0 | 13.0 | 0.00 | 0.00 | 0.00 | 41 | 1002.8 |
| 20260503235022 | 76 | 137 | 5.0 | 13.0 | 0.00 | 0.00 | 0.00 | 41 | 1002.4 |
| 20260503234521 | 76 | 133 | 5.0 | 13.0 | 0.00 | 0.00 | 0.00 | 39 | 1001.4 |
| 20260503234020 | 76 | 142 | 5.0 | 13.0 | 0.00 | 0.00 | 0.00 | 38 | 1000.7 |
| 20260503233003 | 77 | 139 | 6.0 | 13.0 | 0.00 | 0.00 | 0.00 | 38 | 999.7 |
| 20260503232502 | 77 | 162 | 5.0 | 13.0 | 0.00 | 0.00 | 0.00 | 38 | 999.5 |
| 20260503232001 | 77 | 152 | 5.0 | 13.0 | 0.00 | 0.00 | 0.00 | 38 | 999.7 |
| 20260503231500 | 77 | 153 | 3.0 | 13.0 | 0.00 | 0.00 | 0.00 | 40 | 1000.0 |
| 20260503230959 | 77 | 167 | 6.0 | 13.0 | 0.00 | 0.00 | 0.00 | 38 | 1000.5 |
| 20260503225426 | 77 | 150 | 7.0 | 13.0 | 0.00 | 0.00 | 0.00 | 38 | 999.7 |
| 20260503224925 | 78 | 148 | 5.0 | 13.0 | 0.00 | 0.00 | 0.00 | 39 | 1000.1 |
| 20260503224424 | 78 | 160 | 6.0 | 13.0 | 0.00 | 0.00 | 0.00 | 39 | 1000.4 |
| 20260503223923 | 77 | 134 | 8.0 | 13.0 | 0.00 | 0.00 | 0.00 | 40 | 1000.4 |
| 20260503223423 | 77 | 156 | 6.0 | 15.0 | 0.00 | 0.00 | 0.00 | 40 | 999.9 |
| 20260503222921 | 77 | 140 | 8.0 | 15.0 | 0.00 | 0.00 | 0.00 | 40 | 999.5 |
| 20260503222420 | 78 | 141 | 6.0 | 11.0 | 0.00 | 0.00 | 0.00 | 40 | 999.1 |
| 20260503221919 | 78 | 146 | 7.0 | 11.0 | 0.00 | 0.00 | 0.00 | 40 | 998.4 |
| 20260503221419 | 78 | 160 | 5.0 | 11.0 | 0.00 | 0.00 | 0.00 | 41 | 998.5 |
| 20260503220918 | 78 | 157 | 2.0 | 11.0 | 0.00 | 0.00 | 0.00 | 42 | 998.7 |
| 20260503220417 | 78 | 148 | 4.0 | 11.0 | 0.00 | 0.00 | 0.00 | 42 | 999.2 |
| 20260503215915 | 78 | 150 | 6.0 | 11.0 | 0.00 | 0.00 | 0.00 | 40 | 999.3 |
| 20260503215415 | 78 | 165 | 6.0 | 11.0 | 0.00 | 0.00 | 0.00 | 43 | 999.0 |
| 20260503214358 | 79 | 188 | 6.0 | 13.0 | 0.00 | 0.00 | 0.00 | 40 | 998.5 |
| 20260503213857 | 79 | 178 | 6.0 | 13.0 | 0.00 | 0.00 | 0.00 | 39 | 998.2 |
| 20260503212840 | 78 | 139 | 7.0 | 13.0 | 0.00 | 0.00 | 0.00 | 39 | 998.8 |
| 20260503212339 | 78 | 127 | 4.0 | 12.0 | 0.00 | 0.00 | 0.00 | 44 | 998.9 |
| 20260503211322 | 78 | 137 | 5.0 | 13.0 | 0.00 | 0.00 | 0.00 | 42 | 1000.3 |
| 20260503210821 | 78 | 165 | 6.0 | 13.0 | 0.00 | 0.00 | 0.00 | 40 | 1000.2 |
| 20260503210320 | 79 | 135 | 8.0 | 13.0 | 0.00 | 0.00 | 0.00 | 40 | 999.2 |
| 20260503205819 | 79 | 143 | 9.0 | 13.0 | 0.00 | 0.00 | 0.00 | 40 | 998.7 |
| 20260503205318 | 79 | 167 | 6.0 | 11.0 | 0.00 | 0.00 | 0.00 | 40 | 997.7 |
| 20260503204817 | 79 | 160 | 5.0 | 11.0 | 0.00 | 0.00 | 0.00 | 41 | 997.6 |
| 20260503204316 | 79 | 146 | 3.0 | 11.0 | 0.00 | 0.00 | 0.00 | 40 | 998.1 |
| 20260503203815 | 79 | 169 | 6.0 | 11.0 | 0.00 | 0.00 | 0.00 | 41 | 998.5 |
| 20260503203314 | 78 | 120 | 3.0 | 11.0 | 0.00 | 0.00 | 0.00 | 41 | 998.7 |
| 20260503202813 | 78 | 126 | 4.0 | 12.0 | 0.00 | 0.00 | 0.00 | 38 | 1000.2 |
| 20260503202312 | 78 | 156 | 5.0 | 12.0 | 0.00 | 0.00 | 0.00 | 40 | 1000.2 |
| 20260503201255 | 78 | 145 | 5.0 | 13.0 | 0.00 | 0.00 | 0.00 | 41 | 1001.2 |
| 20260503200754 | 78 | 132 | 7.0 | 13.0 | 0.00 | 0.00 | 0.00 | 40 | 1001.3 |
| 20260503195737 | 77 | 130 | 2.0 | 14.0 | 0.00 | 0.00 | 0.00 | 39 | 1001.7 |
| 20260503194720 | 78 | 144 | 8.0 | 14.0 | 0.00 | 0.00 | 0.00 | 38 | 1000.7 |
| 20260503194219 | 78 | 123 | 1.0 | 11.0 | 0.00 | 0.00 | 0.00 | 41 | 1000.3 |
| 20260503193718 | 78 | 151 | 6.0 | 11.0 | 0.00 | 0.00 | 0.00 | 41 | 1000.9 |
| 20260503193217 | 78 | 150 | 2.0 | 14.0 | 0.00 | 0.00 | 0.00 | 42 | 1001.3 |
| 20260503192716 | 78 | 167 | 6.0 | 14.0 | 0.00 | 0.00 | 0.00 | 43 | 1001.6 |
| 20260503191659 | 78 | 146 | 3.0 | 14.0 | 0.00 | 0.00 | 0.00 | 41 | 1001.3 |
| 20260503191158 | 77 | 132 | 5.0 | 14.0 | 0.00 | 0.00 | 0.00 | 39 | 1002.3 |
| 20260503190657 | 78 | 134 | 6.0 | 12.0 | 0.00 | 0.00 | 0.00 | 41 | 1000.1 |
| 20260503190156 | 78 | 130 | 3.0 | 14.0 | 0.00 | 0.00 | 0.00 | 42 | 1000.9 |
| 20260503185655 | 78 | 128 | 5.0 | 14.0 | 0.00 | 0.00 | 0.00 | 39 | 1001.1 |
| 20260503184638 | 78 | 109 | 2.0 | 11.0 | 0.00 | 0.00 | 0.00 | 42 | 1000.5 |
| 20260503183621 | 77 | 164 | 5.0 | 15.0 | 0.00 | 0.00 | 0.00 | 41 | 1002.4 |
| 20260503183120 | 77 | 154 | 9.0 | 15.0 | 0.00 | 0.00 | 0.00 | 40 | 1000.8 |
| 20260503182103 | 78 | 140 | 3.0 | 12.0 | 0.00 | 0.00 | 0.00 | 40 | 999.8 |
| 20260503181602 | 78 | 131 | 3.0 | 12.0 | 0.00 | 0.00 | 0.00 | 40 | 1000.5 |
| 20260503181101 | 78 | 69 | 2.0 | 12.0 | 0.00 | 0.00 | 0.00 | 41 | 1001.0 |
| 20260503180600 | 78 | 118 | 4.0 | 12.0 | 0.00 | 0.00 | 0.00 | 41 | 1001.4 |
| 20260503175543 | 77 | 121 | 2.0 | 12.0 | 0.00 | 0.00 | 0.00 | 45 | 1001.7 |
| 20260503175042 | 77 | 124 | 4.0 | 12.0 | 0.00 | 0.00 | 0.00 | 45 | 1002.1 |
| 20260503174541 | 77 | 136 | 6.0 | 12.0 | 0.00 | 0.00 | 0.00 | 43 | 1001.3 |
| 20260503173524 | 76 | 138 | 2.0 | 12.0 | 0.00 | 0.00 | 0.00 | 43 | 1002.7 |
| 20260503173023 | 77 | 137 | 4.0 | 12.0 | 0.00 | 0.00 | 0.00 | 42 | 1002.6 |
| 20260503172522 | 76 | 154 | 2.0 | 12.0 | 0.00 | 0.00 | 0.00 | 45 | 1002.9 |
| 20260503172022 | 76 | 175 | 2.0 | 12.0 | 0.00 | 0.00 | 0.00 | 45 | 1003.9 |
| 20260503171520 | 76 | 155 | 4.0 | 12.0 | 0.00 | 0.00 | 0.00 | 44 | 1003.8 |
| 20260503171019 | 76 | 156 | 3.0 | 12.0 | 0.00 | 0.00 | 0.00 | 46 | 1004.3 |
| 20260503170519 | 76 | 161 | 4.0 | 12.0 | 0.00 | 0.00 | 0.00 | 48 | 1003.5 |
| 20260503150926 | 70 | 208 | 4.0 | 12.0 | 0.00 | 0.00 | 0.00 | 60 | 1008.9 |
| 20260503150425 | 70 | 210 | 4.0 | 12.0 | 0.00 | 0.00 | 0.00 | 62 | 1008.8 |